This is the latest recevied weather packets stored in our database for station/object G1SCQ. If no packets are shown the sender has not sent any weather packets the latest 10 day(s).
| Time | Temp. | Humidity | Pressure | Rain* | Wind** | Luminosity | Snow |
|---|---|---|---|---|---|---|---|
| 1778358966 | 10° C | 91% | 1019.9 hPa | 0 mm | - | 0 W/m² | - |
| 1778358426 | 10° C | 90% | 1019.5 hPa | 0 mm | - | 0 W/m² | - |
| 1778357886 | 10° C | 90% | 1019.8 hPa | 0 mm | - | 0 W/m² | - |
| 1778357346 | 10° C | 87% | 1019.7 hPa | 0 mm | - | 0 W/m² | - |
| 1778356805 | 9.44° C | 84% | 1019.5 hPa | 0 mm | - | 0 W/m² | - |
| 1778356445 | 10° C | 85% | 1019.5 hPa | 0 mm | - | 0 W/m² | - |
| 1778355905 | 10° C | 86% | 1019.2 hPa | 0 mm | - | 2 W/m² | - |
| 1778355365 | 10° C | 87% | 1019.2 hPa | 0 mm | - | 3 W/m² | - |
| 1778354826 | 10° C | 86% | 1019.1 hPa | 0 mm | - | 6 W/m² | - |
| 1778354285 | 10.56° C | 86% | 1019.1 hPa | 0 mm | - | 9 W/m² | - |
| 1778353747 | 10.56° C | 85% | 1019 hPa | 0 mm | - | 13 W/m² | - |
| 1778353207 | 11.11° C | 85% | 1019 hPa | 0 mm | - | 21 W/m² | - |
| 1778352845 | 11.67° C | 83% | 1018.9 hPa | 0 mm | - | 25 W/m² | - |
| 1778352305 | 12.22° C | 80% | 1018.9 hPa | 0 mm | - | 32 W/m² | - |
| 1778351769 | 12.78° C | 78% | 1018.8 hPa | 0 mm | - | 40 W/m² | - |
| 1778351225 | 13.33° C | 75% | 1018.8 hPa | 0 mm | - | 49 W/m² | - |
| 1778350686 | 13.89° C | 72% | 1018.6 hPa | 0 mm | - | 57 W/m² | - |
| 1778350149 | 14.44° C | 68% | 1018.4 hPa | 0 mm | - | 87 W/m² | - |
| 1778349605 | 14.44° C | 61% | 1018.5 hPa | 0 mm | - | 109 W/m² | - |
| 1778349245 | 14.44° C | 56% | 1018.4 hPa | 0 mm | - | 99 W/m² | - |
| 1778348705 | 15° C | 56% | 1018.2 hPa | 0 mm | - | 134 W/m² | - |
| 1778348165 | 15° C | 56% | 1018.2 hPa | 0 mm | - | 153 W/m² | - |
| 1778347625 | 16.11° C | 57% | 1018.5 hPa | 0 mm | - | 181 W/m² | - |
| 1778347085 | 16.11° C | 57% | 1018.3 hPa | 0 mm | - | 211 W/m² | - |
| 1778346549 | 16.11° C | 59% | 1018.1 hPa | 0 mm | - | 280 W/m² | - |
* Rain latest hour (hover to see other rain measurements)
** Current wind speed in m/s (hover to see current wind gust speed)